Location: Huisseau
(47.5933°N, 1.4533°E)
Time: 19:27:52
(UTC+00:00)

CENTAUR R/B - Pass Details

Date: 18 November 2025
Orbit: 633 x 1547 km, 63.4° (Epoch: 06 December)

Event Time Altitude Azimuth Distance (km) Brightness Sun altitude
Exits shadow 04:51:45 24° 316° (NW) 2,496 4.2 -22.0°
Maximum altitude 04:57:28 80° 234° (SW) 1,479 3.3 -21.1°
Drops below altitude 10° 05:06:54 10° 149° (SSE) 3,716 6.0 -19.5°
Sets 05:10:00 0° 148° (SSE) 4,701 6.6 -19.0°
